This is the latest recevied weather packets stored in our database for station/object PD2BVG. If no packets are shown the sender has not sent any weather packets the latest 1 day(s).
| Time | Temp. | Humidity | Pressure | Rain* | Wind** | Luminosity | Snow |
|---|---|---|---|---|---|---|---|
| 1778006852 | 11.67° C | 79% | 1010.6 hPa | 0 mm | 4.92 m/s, 333° | 18 W/m² | - |
| 1778006792 | 11.67° C | 79% | 1010.6 hPa | 0 mm | 4.47 m/s, 321° | 19 W/m² | - |
| 1778006732 | 11.67° C | 79% | 1010.5 hPa | 0 mm | 4.47 m/s, 353° | 19 W/m² | - |
| 1778006672 | 11.67° C | 79% | 1010.5 hPa | 0 mm | 4.47 m/s, 350° | 21 W/m² | - |
| 1778006612 | 11.67° C | 79% | 1010.6 hPa | 0 mm | 4.02 m/s, 6° | 21 W/m² | - |
| 1778006555 | 11.67° C | 79% | 1010.5 hPa | 0 mm | 3.58 m/s, 330° | 23 W/m² | - |
| 1778006495 | 11.67° C | 79% | 1010.5 hPa | 0 mm | 3.13 m/s, 0° | 25 W/m² | - |
| 1778006434 | 11.67° C | 79% | 1010.5 hPa | 0 mm | 3.58 m/s, 0° | 25 W/m² | - |
| 1778006374 | 11.67° C | 79% | 1010.5 hPa | 0 mm | 4.47 m/s, 313° | 28 W/m² | - |
| 1778006313 | 11.67° C | 79% | 1010.5 hPa | 0 mm | 4.92 m/s, 354° | 28 W/m² | - |
| 1778006254 | 11.67° C | 79% | 1010.5 hPa | 0 mm | 5.36 m/s, 355° | 28 W/m² | - |
| 1778006191 | 11.67° C | 79% | 1010.5 hPa | 0 mm | 5.36 m/s, 330° | 30 W/m² | - |
| 1778006131 | 12.22° C | 79% | 1010.5 hPa | 0 mm | 4.92 m/s, 329° | 34 W/m² | - |
| 1778006070 | 12.22° C | 79% | 1010.4 hPa | 0 mm | 3.58 m/s, 330° | 34 W/m² | - |
| 1778006011 | 12.22° C | 79% | 1010.4 hPa | 0 mm | 4.47 m/s, 323° | 34 W/m² | - |
| 1778005951 | 12.22° C | 79% | 1010.5 hPa | 0 mm | 4.92 m/s, 0° | 35 W/m² | - |
| 1778005891 | 12.22° C | 79% | 1010.5 hPa | 0 mm | 4.47 m/s, 333° | 35 W/m² | - |
| 1778005831 | 12.22° C | 79% | 1010.4 hPa | 0 mm | 4.47 m/s, 338° | 39 W/m² | - |
| 1778005772 | 12.22° C | 79% | 1010.4 hPa | 0 mm | 4.02 m/s, 0° | 39 W/m² | - |
| 1778005712 | 12.22° C | 79% | 1010.4 hPa | 0 mm | 4.02 m/s, 0° | 42 W/m² | - |
| 1778005650 | 12.22° C | 79% | 1010.4 hPa | 0 mm | 4.47 m/s, 350° | 42 W/m² | - |
| 1778005588 | 12.22° C | 79% | 1010.5 hPa | 0 mm | 4.47 m/s, 338° | 42 W/m² | - |
| 1778005525 | 12.22° C | 79% | 1010.4 hPa | 0 mm | 4.92 m/s, 317° | 44 W/m² | - |
| 1778005464 | 12.22° C | 79% | 1010.3 hPa | 0 mm | 4.92 m/s, 4° | 46 W/m² | - |
| 1778005405 | 12.22° C | 78% | 1010.5 hPa | 0 mm | 4.92 m/s, 334° | 46 W/m² | - |
* Rain latest hour (hover to see other rain measurements)
** Current wind speed in m/s (hover to see current wind gust speed)